Location: Saint Louis
(38.6272°N, 90.1978°W)
Time: 08:07:30
(UTC-05:00)

ISS - Pass Details

Date: 23 January 2013
Orbit: 402 x 406 km, 51.6° (Epoch: 29 August)

Event Time Altitude Azimuth Distance (km) Brightness Sun altitude
Exits shadow 04:26:04 - 47° (NE) 1,955 0.7 -32.5°
Enters shadow 05:23:28 -68° 276° (W) 12,311 4.1 -21.3°
Maximum altitude 06:01:06 21° 26° (NNE) 979 -1.3 -14.1°
